Time,TemperatureF,DewpointF,PressureIn,WindDirection,WindDirectionDegrees,WindSpeedMPH,WindSpeedGustMPH,Humidity,HourlyPrecipIn,Conditions,Clouds,dailyrainin,SolarRadiationWatts/m^2,SoftwareType,DateUTC
2013-01-21 00:22:00,37.0,3.0,-100.00,West,267,5.0,7.0,23,0.00,,,0.00,0.000000,,2013-01-21 08:22:00,
2013-01-21 00:32:00,37.0,3.0,-100.00,West,267,5.0,7.0,23,0.00,,,0.00,0.000000,,2013-01-21 08:32:00,
2013-01-21 00:42:00,37.0,3.0,-100.00,West,267,5.0,7.0,23,0.00,,,0.00,0.000000,,2013-01-21 08:42:00,
2013-01-21 00:52:00,37.0,3.0,-100.00,West,267,5.0,7.0,23,0.00,,,0.00,0.000000,,2013-01-21 08:52:00,
2013-01-21 01:22:00,38.0,3.0,-100.00,NW,305,4.0,7.0,22,0.00,,,0.00,0.000000,,2013-01-21 09:22:00,
2013-01-21 01:33:00,38.0,3.0,-100.00,NW,305,4.0,7.0,22,0.00,,,0.00,0.000000,,2013-01-21 09:33:00,
2013-01-21 01:42:00,38.0,3.0,-100.00,NW,305,4.0,7.0,22,0.00,,,0.00,0.000000,,2013-01-21 09:42:00,
2013-01-21 01:52:00,38.0,3.0,-100.00,NW,305,4.0,7.0,22,0.00,,,0.00,0.000000,,2013-01-21 09:52:00,
2013-01-21 02:22:00,39.0,3.0,-100.00,West,276,4.0,7.0,22,0.00,,,0.00,0.000000,,2013-01-21 10:22:00,
2013-01-21 02:32:00,39.0,3.0,-100.00,West,276,4.0,7.0,22,0.00,,,0.00,0.000000,,2013-01-21 10:32:00,
2013-01-21 02:42:00,39.0,3.0,-100.00,West,276,4.0,7.0,22,0.00,,,0.00,0.000000,,2013-01-21 10:42:00,
2013-01-21 02:52:00,39.0,3.0,-100.00,West,276,4.0,7.0,22,0.00,,,0.00,0.000000,,2013-01-21 10:52:00,
2013-01-21 03:22:00,31.0,4.0,-100.00,West,259,2.0,7.0,31,0.00,,,0.00,0.000000,,2013-01-21 11:22:00,
2013-01-21 03:32:00,31.0,4.0,-100.00,West,259,2.0,7.0,31,0.00,,,0.00,0.000000,,2013-01-21 11:32:00,
2013-01-21 03:42:00,31.0,4.0,-100.00,West,259,2.0,7.0,31,0.00,,,0.00,0.000000,,2013-01-21 11:42:00,
2013-01-21 03:53:00,31.0,4.0,-100.00,West,259,2.0,7.0,31,0.00,,,0.00,0.000000,,2013-01-21 11:53:00,
2013-01-21 04:22:00,32.0,3.0,30.18,NW,322,2.0,6.0,29,0.00,,,0.00,0.000000,,2013-01-21 12:22:00,
2013-01-21 04:32:00,32.0,3.0,30.18,NW,322,2.0,6.0,29,0.00,,,0.00,0.000000,,2013-01-21 12:32:00,
2013-01-21 04:42:00,32.0,3.0,30.18,NW,322,2.0,6.0,29,0.00,,,0.00,0.000000,,2013-01-21 12:42:00,
2013-01-21 04:52:00,32.0,3.0,30.18,NW,322,2.0,6.0,29,0.00,,,0.00,0.000000,,2013-01-21 12:52:00,
2013-01-21 05:23:00,32.0,3.0,-100.00,WNW,293,1.0,4.0,28,0.00,,,0.00,0.000000,,2013-01-21 13:23:00,
2013-01-21 05:33:00,32.0,3.0,-100.00,WNW,293,1.0,4.0,28,0.00,,,0.00,0.000000,,2013-01-21 13:33:00,
2013-01-21 05:42:00,32.0,3.0,-100.00,WNW,293,1.0,4.0,28,0.00,,,0.00,0.000000,,2013-01-21 13:42:00,
2013-01-21 05:53:00,32.0,3.0,-100.00,WNW,293,1.0,4.0,28,0.00,,,0.00,0.000000,,2013-01-21 13:53:00,
2013-01-21 06:23:00,31.0,4.0,30.19,West,273,3.0,4.0,31,0.00,,,0.00,0.000000,,2013-01-21 14:23:00,
2013-01-21 06:32:00,31.0,4.0,30.19,West,273,3.0,4.0,31,0.00,,,0.00,0.000000,,2013-01-21 14:32:00,
2013-01-21 06:43:00,31.0,4.0,30.19,West,273,3.0,4.0,31,0.00,,,0.00,0.000000,,2013-01-21 14:43:00,
2013-01-21 06:52:00,31.0,4.0,30.19,West,273,3.0,4.0,31,0.00,,,0.00,0.000000,,2013-01-21 14:52:00,
2013-01-21 07:23:00,30.0,5.0,30.19,West,273,4.0,6.0,34,0.00,,,0.00,0.000000,,2013-01-21 15:23:00,
2013-01-21 07:33:00,30.0,5.0,30.19,West,273,4.0,6.0,34,0.00,,,0.00,0.000000,,2013-01-21 15:33:00,
2013-01-21 07:42:00,30.0,5.0,30.19,West,273,4.0,6.0,34,0.00,,,0.00,0.000000,,2013-01-21 15:42:00,
2013-01-21 07:52:00,30.0,5.0,30.19,West,273,4.0,6.0,34,0.00,,,0.00,0.000000,,2013-01-21 15:52:00,
2013-01-21 08:23:00,40.0,6.0,30.21,North,3,4.0,7.0,24,0.00,,,0.00,54.000000,,2013-01-21 16:23:00,
2013-01-21 09:22:00,52.0,4.0,30.23,ESE,121,4.0,30.0,14,0.00,,,0.00,276.000000,,2013-01-21 17:22:00,
2013-01-21 10:22:00,54.0,4.0,30.25,East,91,5.0,8.0,13,-99.99,,,-99.99,474.000000,,2013-01-21 18:22:00,
2013-01-21 10:33:00,54.0,4.0,30.25,East,91,5.0,8.0,13,-99.99,,,-99.99,474.000000,,2013-01-21 18:33:00,
2013-01-21 11:22:00,57.0,3.0,-100.00,East,79,9.0,13.0,11,0.00,,,0.00,621.000000,,2013-01-21 19:22:00,
2013-01-21 11:33:00,57.0,3.0,-100.00,East,79,9.0,13.0,11,0.00,,,0.00,621.000000,,2013-01-21 19:33:00,
2013-01-21 11:42:00,57.0,3.0,-100.00,East,79,9.0,13.0,11,0.00,,,0.00,621.000000,,2013-01-21 19:42:00,
2013-01-21 11:52:00,57.0,3.0,-100.00,East,79,9.0,13.0,11,0.00,,,0.00,621.000000,,2013-01-21 19:52:00,
2013-01-21 12:22:00,61.0,-1.0,30.22,ENE,66,10.0,16.0,8,0.00,,,0.00,707.000000,,2013-01-21 20:22:00,
2013-01-21 12:32:00,61.0,-1.0,30.22,ENE,66,10.0,16.0,8,0.00,,,0.00,707.000000,,2013-01-21 20:32:00,
2013-01-21 12:43:00,61.0,-1.0,30.22,ENE,66,10.0,16.0,8,0.00,,,0.00,707.000000,,2013-01-21 20:43:00,
2013-01-21 12:52:00,61.0,-1.0,30.22,ENE,66,10.0,16.0,8,0.00,,,0.00,707.000000,,2013-01-21 20:52:00,
2013-01-21 13:22:00,65.0,-1.0,30.20,ENE,74,11.0,17.0,7,0.00,,,0.00,722.000000,,2013-01-21 21:22:00,
2013-01-21 13:33:00,65.0,-1.0,30.20,ENE,74,11.0,17.0,7,0.00,,,0.00,722.000000,,2013-01-21 21:33:00,
2013-01-21 13:43:00,65.0,-1.0,30.20,ENE,74,11.0,17.0,7,0.00,,,0.00,722.000000,,2013-01-21 21:43:00,
2013-01-21 13:53:00,65.0,-1.0,30.20,ENE,74,11.0,17.0,7,0.00,,,0.00,722.000000,,2013-01-21 21:53:00,
2013-01-21 14:23:00,65.0,-4.0,30.18,ENE,58,13.0,21.0,6,0.00,,,-99.99,665.000000,,2013-01-21 22:23:00,
2013-01-21 15:22:00,66.0,-3.0,-100.00,NE,54,13.0,21.0,6,0.00,,,0.00,541.000000,,2013-01-21 23:22:00,
2013-01-21 15:42:00,66.0,-3.0,-100.00,NE,54,13.0,21.0,6,0.00,,,0.00,541.000000,,2013-01-21 23:42:00,
2013-01-21 15:52:00,66.0,-3.0,-100.00,NE,54,13.0,21.0,6,0.00,,,0.00,541.000000,,2013-01-21 23:52:00,
2013-01-21 16:22:00,65.0,-4.0,30.16,ENE,64,13.0,20.0,6,0.00,,,0.00,360.000000,,2013-01-22 00:22:00,
2013-01-21 16:32:00,65.0,-4.0,30.16,ENE,64,13.0,20.0,6,0.00,,,0.00,360.000000,,2013-01-22 00:32:00,
2013-01-21 16:42:00,65.0,-4.0,30.16,ENE,64,13.0,20.0,6,0.00,,,0.00,360.000000,,2013-01-22 00:42:00,
2013-01-21 16:52:00,65.0,-4.0,30.16,ENE,64,13.0,20.0,6,0.00,,,0.00,360.000000,,2013-01-22 00:52:00,
2013-01-21 17:23:00,59.0,-2.0,-100.00,NE,37,7.0,16.0,8,0.00,,,0.00,113.000000,,2013-01-22 01:23:00,
2013-01-21 17:32:00,59.0,-2.0,-100.00,NE,37,7.0,16.0,8,0.00,,,0.00,113.000000,,2013-01-22 01:32:00,
2013-01-21 17:42:00,59.0,-2.0,-100.00,NE,37,7.0,16.0,8,0.00,,,0.00,113.000000,,2013-01-22 01:42:00,
2013-01-21 17:52:00,59.0,-2.0,-100.00,NE,37,7.0,16.0,8,0.00,,,0.00,113.000000,,2013-01-22 01:52:00,
2013-01-21 18:22:00,56.0,-2.0,-100.00,NNE,29,9.0,12.0,9,0.00,,,0.00,2.000000,,2013-01-22 02:22:00,
2013-01-21 18:32:00,56.0,-2.0,-100.00,NNE,29,9.0,12.0,9,0.00,,,0.00,2.000000,,2013-01-22 02:32:00,
2013-01-21 18:42:00,56.0,-2.0,-100.00,NNE,29,9.0,12.0,9,0.00,,,0.00,2.000000,,2013-01-22 02:42:00,
2013-01-21 18:52:00,56.0,-2.0,-100.00,NNE,29,9.0,12.0,9,0.00,,,0.00,2.000000,,2013-01-22 02:52:00,
2013-01-21 19:22:00,47.0,-1.0,-100.00,WNW,302,4.0,11.0,13,0.00,,,0.00,0.000000,,2013-01-22 03:22:00,
2013-01-21 19:32:00,47.0,-1.0,-100.00,WNW,302,4.0,11.0,13,0.00,,,0.00,0.000000,,2013-01-22 03:32:00,
2013-01-21 19:42:00,47.0,-1.0,-100.00,WNW,302,4.0,11.0,13,0.00,,,0.00,0.000000,,2013-01-22 03:42:00,
2013-01-21 19:52:00,47.0,-1.0,-100.00,WNW,302,4.0,11.0,13,0.00,,,0.00,0.000000,,2013-01-22 03:52:00,
2013-01-21 20:22:00,43.0,1.0,-100.00,NW,325,8.0,10.0,17,0.00,,,0.00,0.000000,,2013-01-22 04:22:00,
2013-01-21 20:32:00,43.0,1.0,-100.00,NW,325,8.0,10.0,17,0.00,,,0.00,0.000000,,2013-01-22 04:32:00,
2013-01-21 20:42:00,43.0,1.0,-100.00,NW,325,8.0,10.0,17,0.00,,,0.00,0.000000,,2013-01-22 04:42:00,
2013-01-21 20:52:00,43.0,1.0,-100.00,NW,325,8.0,10.0,17,0.00,,,0.00,0.000000,,2013-01-22 04:52:00,
2013-01-21 21:22:00,43.0,1.0,-100.00,NW,304,3.0,12.0,17,0.00,,,0.00,0.000000,,2013-01-22 05:22:00,
2013-01-21 21:32:00,43.0,1.0,-100.00,NW,304,3.0,12.0,17,0.00,,,0.00,0.000000,,2013-01-22 05:32:00,
2013-01-21 21:42:00,43.0,1.0,-100.00,NW,304,3.0,12.0,17,0.00,,,0.00,0.000000,,2013-01-22 05:42:00,
2013-01-21 21:52:00,43.0,1.0,-100.00,NW,304,3.0,12.0,17,0.00,,,0.00,0.000000,,2013-01-22 05:52:00,
2013-01-21 22:22:00,38.0,-2.0,-100.00,NW,306,4.0,8.0,18,0.00,,,0.00,0.000000,,2013-01-22 06:22:00,
2013-01-21 22:32:00,38.0,-2.0,-100.00,NW,306,4.0,8.0,18,0.00,,,0.00,0.000000,,2013-01-22 06:32:00,
2013-01-21 22:42:00,38.0,-2.0,-100.00,NW,306,4.0,8.0,18,0.00,,,0.00,0.000000,,2013-01-22 06:42:00,
2013-01-21 22:52:00,38.0,-2.0,-100.00,NW,306,4.0,8.0,18,0.00,,,0.00,0.000000,,2013-01-22 06:52:00,
2013-01-21 23:22:00,40.0,1.0,-100.00,NNW,327,5.0,11.0,19,0.00,,,0.00,0.000000,,2013-01-22 07:22:00,
2013-01-21 23:32:00,40.0,1.0,-100.00,NNW,327,5.0,11.0,19,0.00,,,0.00,0.000000,,2013-01-22 07:32:00,
2013-01-21 23:42:00,40.0,1.0,-100.00,NNW,327,5.0,11.0,19,0.00,,,0.00,0.000000,,2013-01-22 07:42:00,
2013-01-21 23:52:00,40.0,1.0,-100.00,NNW,327,5.0,11.0,19,0.00,,,0.00,0.000000,,2013-01-22 07:52:00,